Погода в Баррейрасе

Бразилия     12°08′43″S   44°59′46″W
темп.,
°C
ветер,
м/с
пор.,
м/с
влажн.,
%
обл.,
%
осадки,
мм/ч
давл.,
гПа
погр.,
м
15 мая, сб
сб1500:00+19ю2259100 0.0 101516
03:00+18ю1162100 0.0 101511
06:00+17юв1168100 0.0 101618
09:00+23вюв2456100 0.0 1017472
12:00+30вюв2236100 0.0 10151810
15:00+31вюв2231100 0.0 10122629
18:00+25юв114599 0.0 101211
21:00+23в1150100 0.0 101511
16 мая, вс
вс1600:00+21ююв115697 0.0 101512
03:00+19юв1257100 0.0 101417
06:00+17юв116166 0.0 101512
09:00+25в1348100 0.0 1017569
12:00+31юв2232100 0.0 10142213
15:00+32ю2227100 0.0 10112853
18:00+27ю243899 0.0 101281
21:00+24юв1244100 0.0 101528
17 мая, пн
пн1700:00+23ююз1143100 0.0 101518
03:00+22ю1144100 0.0 101412
06:00+21ююв2347100 0.0 101599
09:00+26всв1339100 0.0 1017649
12:00+32вюв1230100 0.0 10142069
15:00+32ю2229100 0.0 10112697
18:00+26ю3838100 0.0 1013262
21:00+24ю114499 0.0 101515
18 мая, вт
вт1800:00+20ююз115294 0.0 101512
03:00+20ю1152100 0.0 101413
06:00+18ююв1155100 0.0 101511
09:00+26ссв254396 0.0 1016694
12:00+33св112991 0.0 10142519
15:00+32юз1126100 0.0 10112801
18:00+27ю2736100 0.0 1012237
21:00+23ю224470 0.0 101437
19 мая, ср
ср1900:00+20юв1149100 0.0 101411
03:00+22ююз1141100 0.0 101436
06:00+22ююв2240100 0.0 101541
09:00+28юв123199 0.0 1016507
12:00+35всв11245 0.0 10132346
15:00+35зюз112315 0.0 10092983
18:00+28ююз233496 0.0 101046
21:00+24юз11420 0.0 101212